Weather History for KFMN - May, 2014

Change the Weather History Date:

Sunday, May 25, 2014

  Actual Average Record
Temperature  
Mean Temperature 53 °F -  
Max Temperature 60 °F 81 °F 91 °F (2005)
Min Temperature 46 °F 45 °F 27 °F (1980)
Degree Days  
Heating Degree Days 12    
Growing Degree Days 3 (Base 50)    
Moisture  
Dew Point 42 °F    
Average Humidity 71    
Maximum Humidity 90    
Minimum Humidity 36    
Precipitation  
Precipitation 0.08 in - - ()
Sea Level Pressure  
Sea Level Pressure 30.05 in    
Wind  
Wind Speed 4 mph (West)    
Max Wind Speed 9 mph    
Max Gust Speed -    
Visibility 10 miles    
Events Rain    
Averages and records for this station are not official NWS values.
T = Trace of Precipitation, MM = Missing Value Source: NWS Daily Summary

Daily Weather History Graph

Daily Weather History Graph

Search for Another Location

Airport or City:

Trip Planner

Search our weather history database for the weather conditions in past years. The results will help you decide how hot, cold, wet, or windy it might be!

Date:

Astronomy

May. 25, 2014 Rise Set
Actual Time 5:58 AM MDT 8:21 PM MDT
Civil Twilight 5:28 AM MDT 8:51 PM MDT
Nautical Twilight 4:52 AM MDT 9:27 PM MDT
Astronomical Twilight 4:12 AM MDT 10:08 PM MDT
Moon 3:59 AM MDT (5/25) 5:29 PM MDT (5/25)
Length of Visible Light 15h 22m
Length of Day
14h 22m
Waning Crescent, 10% of the Moon is Illuminated
May 25
Waning Crescent
May 28
New
Jun 5
First Quarter
Jun 12
Full
Jun 19
Last Quarter

Hourly Weather History & Observations

Time (MDT) Temp. Windchill Dew Point Humidity Pressure Visibility Wind Dir Wind Speed Gust Speed Precip Events Conditions
12:53 AM 50.0 °F - 39.0 °F 66% 29.96 in 10.0 mi ESE 5.8 mph - N/A   Scattered Clouds
1:53 AM 50.0 °F - 39.9 °F 68% 29.96 in 10.0 mi East 8.1 mph - N/A   Mostly Cloudy
2:53 AM 48.9 °F - 39.9 °F 71% 29.96 in 10.0 mi NE 4.6 mph - N/A   Overcast
3:53 AM 48.0 °F - 41.0 °F 77% 29.97 in 10.0 mi NE 3.5 mph - N/A   Overcast
4:53 AM 48.9 °F - 42.1 °F 77% 29.98 in 10.0 mi Calm Calm - 0.00 in   Overcast
5:04 AM 48.9 °F - 41.0 °F 74% 30.07 in 10.0 mi Calm Calm - N/A   Overcast
6:53 AM 46.9 °F - 44.1 °F 90% 30.00 in 8.0 mi Calm Calm - 0.05 in Rain Light Rain
7:38 AM 46.9 °F - 44.1 °F 90% 30.10 in 10.0 mi WSW 4.6 mph - 0.01 in Rain Light Rain
7:53 AM 46.9 °F - 44.1 °F 90% 30.04 in 10.0 mi West 6.9 mph - 0.01 in Rain Light Rain
8:12 AM 46.0 °F 41.4 °F 43.0 °F 89% 30.10 in 10.0 mi WNW 9.2 mph - 0.00 in Rain Light Rain
9:19 AM 46.0 °F 42.5 °F 43.0 °F 89% 30.11 in 10.0 mi SW 6.9 mph - 0.00 in Rain Light Rain
9:53 AM 46.0 °F 43.1 °F 43.0 °F 89% 30.07 in 10.0 mi WSW 5.8 mph - 0.01 in Rain Light Rain
10:19 AM 46.0 °F 43.9 °F 42.1 °F 86% 30.12 in 10.0 mi West 4.6 mph - 0.00 in   Overcast
10:35 AM 46.0 °F 43.1 °F 43.0 °F 89% 30.12 in 10.0 mi West 5.8 mph - 0.00 in   Overcast
10:53 AM 46.9 °F - 43.0 °F 86% 30.07 in 10.0 mi WNW 4.6 mph - 0.00 in   Overcast
11:11 AM 48.0 °F - 43.0 °F 83% 30.13 in 10.0 mi West 5.8 mph - N/A   Overcast
11:29 AM 48.9 °F - 44.1 °F 83% 30.13 in 10.0 mi WNW 5.8 mph - N/A   Overcast
11:53 AM 50.0 °F - 43.0 °F 77% 30.07 in 10.0 mi WSW 5.8 mph - N/A   Overcast
12:02 PM 50.0 °F - 43.0 °F 77% 30.13 in 10.0 mi WSW 4.6 mph - N/A   Overcast
12:29 PM 50.0 °F - 42.1 °F 74% 30.12 in 10.0 mi SSW 4.6 mph - N/A   Overcast
12:53 PM 51.1 °F - 42.1 °F 71% 30.06 in 10.0 mi Calm Calm - N/A   Overcast
1:53 PM 52.0 °F - 42.1 °F 69% 30.05 in 10.0 mi Calm Calm - N/A   Overcast
2:08 PM 52.0 °F - 42.1 °F 69% 30.11 in 10.0 mi Calm Calm - N/A   Overcast
2:53 PM 54.0 °F - 42.1 °F 64% 30.03 in 10.0 mi Calm Calm - N/A   Overcast
3:38 PM 54.0 °F - 42.1 °F 64% 30.09 in 10.0 mi NNW 4.6 mph - N/A   Overcast
3:53 PM 54.0 °F - 42.1 °F 64% 30.02 in 10.0 mi Calm Calm - N/A   Overcast
4:53 PM 55.9 °F - 41.0 °F 57% 30.00 in 10.0 mi Calm Calm - N/A   Partly Cloudy
5:53 PM 60.1 °F - 39.9 °F 47% 29.99 in 10.0 mi West 8.1 mph - N/A   Partly Cloudy
6:53 PM 60.1 °F - 39.9 °F 47% 29.98 in 10.0 mi Variable 3.5 mph - N/A   Partly Cloudy
7:53 PM 55.9 °F - 41.0 °F 57% 30.01 in 10.0 mi WSW 5.8 mph - N/A   Clear
8:53 PM 53.1 °F - 41.0 °F 64% 30.03 in 10.0 mi WSW 6.9 mph - N/A   Clear
9:53 PM 52.0 °F - 41.0 °F 66% 30.06 in 10.0 mi West 4.6 mph - N/A   Partly Cloudy
10:53 PM 52.0 °F - 42.1 °F 69% 30.06 in 10.0 mi SW 3.5 mph - N/A   Mostly Cloudy
11:53 PM 52.0 °F - 42.1 °F 69% 30.04 in 10.0 mi Calm Calm - N/A   Mostly Cloudy